EW5404 Weather Reports


time (UTC)temp
C
wind
direction
speed
KPH
gust
KPH
rain 1hr
cm
rain 24hr
cm
rain mn
cm
humidity
%
barometer
mb
20260505200054 26 253 3.2 16.1 0.00 0.00 0.00 40 1014.9
20260505194607 26 159 4.8 19.3 0.00 0.00 0.00 38 1015.3
20260505193050 26 259 1.6 9.7 0.00 0.00 0.00 38 1015.6
20260505191547 26 336 0.0 8.0 0.00 0.00 0.00 38 1015.7
20260505190047 26 336 3.2 12.9 0.00 0.00 0.00 38 1015.7
20260505184546 26 302 0.0 8.0 0.00 0.00 0.00 37 1015.9
20260505183045 25 338 0.0 8.0 0.00 0.00 0.00 38 1016.1
20260505181550 26 332 3.2 9.7 0.00 0.00 0.00 35 1016.3
20260505180044 26 246 1.6 14.5 0.00 0.00 0.00 32 1016.8
20260505174549 25 227 3.2 20.9 0.00 0.00 0.00 37 1016.9
20260505173042 25 355 3.2 24.1 0.00 0.00 0.00 37 1017.0
20260505171541 25 340 4.8 16.1 0.00 0.00 0.00 38 1017.0
20260505170038 25 180 4.8 14.5 0.00 0.00 0.00 40 1016.8
20260505164535 24 240 0.0 9.7 0.00 0.00 0.00 44 1016.9
20260505163031 23 13 1.6 8.0 0.00 0.00 0.00 47 1017.2
20260505161529 23 96 3.2 14.5 0.00 0.00 0.00 47 1017.2
20260505153018 22 309 1.6 8.0 0.00 0.00 0.00 50 1017.5
20260505151516 22 302 0.0 8.0 0.00 0.00 0.00 54 1017.8
20260505130104 15 278 0.0 0.0 0.00 0.00 0.00 80 1017.2
20260505124544 14 278 0.0 0.0 0.00 0.00 0.00 83 1017.2
20260505123044 13 278 0.0 0.0 0.00 0.00 0.00 87 1017.2
20260505121637 12 204 0.0 0.0 0.00 0.00 0.00 90 1017.1
20260505120037 11 202 0.0 0.0 0.00 0.00 0.00 91 1017.0
20260505114536 10 202 0.0 1.6 0.00 0.00 0.00 91 1016.9
20260505113036 10 231 0.0 0.0 0.00 0.00 0.00 91 1016.9
20260505111539 10 231 0.0 0.0 0.00 0.00 0.00 90 1017.0
20260505101528 10 315 0.0 0.0 0.00 0.00 0.00 88 1016.7
20260505100032 10 315 0.0 0.0 0.00 0.00 0.00 89 1016.6
20260505094526 10 315 0.0 0.0 0.00 0.00 0.00 88 1016.6
20260505093025 10 315 0.0 0.0 0.00 0.00 0.00 88 1016.6
20260505091523 10 315 0.0 0.0 0.00 0.00 0.00 87 1016.6
20260505090022 10 315 0.0 0.0 0.00 0.00 0.00 86 1016.5
20260505084522 11 315 0.0 0.0 0.00 0.00 0.00 86 1016.5
20260505083018 11 315 0.0 0.0 0.00 0.00 0.00 85 1016.3
20260505081518 11 315 0.0 0.0 0.00 0.00 0.00 85 1016.4
20260505080013 11 315 0.0 0.0 0.00 0.00 0.00 84 1016.2
20260505074512 11 315 0.0 0.0 0.00 0.00 0.00 83 1016.1
20260505073012 11 315 0.0 0.0 0.00 0.00 0.00 83 1016.0
20260505071523 11 315 0.0 0.0 0.00 0.00 0.00 82 1016.0
20260505070010 12 315 0.0 0.0 0.00 0.00 0.00 82 1015.8
20260505064514 12 315 0.0 0.0 0.00 0.00 0.00 82 1015.9
20260505063012 12 315 0.0 0.0 0.00 0.00 0.00 81 1015.7
20260505061508 12 315 0.0 0.0 0.00 0.00 0.00 81 1015.8
20260505054600 13 315 0.0 0.0 0.00 0.00 0.00 79 1015.9
20260505053104 13 315 0.0 0.0 0.00 0.00 0.00 77 1016.1
20260505051554 13 315 0.0 0.0 0.00 0.00 0.00 74 1016.2
20260505041545 15 315 0.0 0.0 0.00 0.00 0.00 66 1016.3
20260505040044 16 315 0.0 0.0 0.00 0.00 0.00 66 1016.2
20260505034540 16 315 0.0 0.0 0.00 0.00 0.00 65 1016.4
20260505033045 16 315 0.0 0.0 0.00 0.00 0.00 63 1016.3
20260505031539 16 315 0.0 0.0 0.00 0.00 0.00 62 1016.4
20260505030039 17 315 0.0 0.0 0.00 0.00 0.00 61 1016.3
20260505024537 17 315 0.0 0.0 0.00 0.00 0.00 60 1016.4
20260505023039 17 315 0.0 0.0 0.00 0.00 0.00 58 1016.3
20260505021537 18 315 0.0 0.0 0.00 0.00 0.00 56 1016.1
20260505020036 18 315 0.0 0.0 0.00 0.00 0.00 55 1016.0
20260505014536 19 315 0.0 0.0 0.00 0.00 0.00 53 1015.8
20260505013036 20 315 0.0 0.0 0.00 0.00 0.00 50 1015.7
20260505011543 20 315 0.0 0.0 0.00 0.00 0.00 49 1015.6
20260505010038 21 315 0.0 0.0 0.00 0.00 0.00 47 1015.6
20260505004535 21 315 0.0 0.0 0.00 0.00 0.00 46 1015.5
20260505003033 21 315 0.0 0.0 0.00 0.00 0.00 44 1015.4
20260505001533 22 315 0.0 0.0 0.00 0.00 0.00 42 1015.5
20260505000033 22 315 0.0 0.0 0.00 0.00 0.00 41 1015.3
20260504234529 23 315 0.0 1.6 0.00 0.00 0.00 39 1015.1
20260504233029 23 23 0.0 6.4 0.00 0.00 0.00 37 1014.9
20260504231528 24 201 0.0 9.7 0.00 0.00 0.00 34 1014.8
20260504230028 25 355 0.0 8.0 0.00 0.00 0.00 32 1014.8
20260504224527 25 315 0.0 0.0 0.00 0.00 0.00 30 1014.8
20260504223026 25 335 1.6 14.5 0.00 0.00 0.00 30 1014.9
20260504221524 25 342 0.0 9.7 0.00 0.00 0.00 30 1014.9
20260504220025 26 298 0.0 12.9 0.00 0.00 0.00 32 1015.0
20260504214523 26 268 0.0 6.4 0.00 0.00 0.00 30 1014.9
20260504213023 26 315 1.6 8.0 0.00 0.00 0.00 29 1014.9
20260504211521 27 51 0.0 8.0 0.00 0.00 0.00 27 1014.8
20260504210024 27 43 0.0 9.7 0.00 0.00 0.00 30 1014.9
20260504204520 27 306 0.0 11.3 0.00 0.00 0.00 28 1015.0
20260504203019 27 344 0.0 12.9 0.00 0.00 0.00 29 1015.2
20260504201516 27 48 0.0 9.7 0.00 0.00 0.00 29 1015.2